x

9442396 - La Push, Wa (lapw1) Weather Station

3:36 - Thu 25th Dec 2014 All times are PST. -8 hours from GMT.

  • Wind
    25mph, 30mph gusts
  • Sea Temp 46°f
  • Ar Temp 49°f
  • Sea Pressure 1019.9mb
  • 9442396 - La Push, Wa
  • 9442396 - La Push, Wa

More Historic Weather Station data

Upgrade to MSW Pro to gain access to the past 30 days of data for over 8000 Wavebouys and Weather Stations around the globe.

Join Pro

Comparision Forecast

View Surf forecast
   
Qui 12/25 3:36 25 30 mph 1019.9mb 46f 49f
3:30 23 29 mph 1019.8mb 47f 49f
3:24 24 31 mph 1019.8mb 47f 49f
3:18 21 29 mph 1019.8mb 47f 50f
3:12 20 28 mph 1019.7mb 47f 49f
3:06 22 26 mph 1019.5mb 47f 50f
3:00 23 28 mph 1019.4mb 48f 49f
2:36 24 29 mph 1019.2mb 47f 50f
2:30 23 28 mph 1019.2mb 47f 50f
2:24 23 30 mph 1019.1mb 47f 50f
2:18 22 30 mph 1019mb 47f 50f
2:12 22 30 mph 1019mb 47f 50f
2:06 24 29 mph 1019mb 47f 50f
2:00 26 31 mph 1019mb 47f 50f
1:36 23 29 mph 1018.8mb 46f 50f
1:30 23 28 mph 1018.8mb 46f 50f
1:24 25 31 mph 1018.8mb 45f 50f
1:18 26 31 mph 1018.8mb 45f 50f
1:12 24 28 mph 1018.7mb 45f 50f
1:06 25 30 mph 1018.7mb 45f 50f
1:00 25 32 mph 1018.7mb 45f 50f
12:36 22 28 mph 1018.4mb 45f 50f
12:30 22 28 mph 1018.3mb 45f 50f
12:24 23 29 mph 1018.2mb 45f 50f
12:18 21 28 mph 1018.1mb 45f 50f
12:12 25 30 mph 1018.2mb 45f 50f
12:06 22 28 mph 1017.9mb 45f 50f
12:00 22 26 mph 1017.9mb 45f 50f
Qua 12/24 11:36 22 28 mph 1017.8mb 45f 50f
11:30 20 26 mph 1017.8mb 45f 50f
11:24 18 26 mph 1017.6mb 45f 49f
11:18 20 28 mph 1017.6mb 45f 50f
11:12 20 25 mph 1017.7mb 45f 49f
11:06 17 24 mph 1017.7mb 45f 50f
11:00 21 26 mph 1017.7mb 45f 50f
10:36 22 25 mph 1017.6mb 45f 50f
10:30 22 28 mph 1017.6mb 45f 50f
10:24 22 28 mph 1017.5mb 45f 50f
10:18 21 26 mph 1017.4mb 45f 50f
10:12 23 29 mph 1017.3mb 45f 50f
10:06 24 28 mph 1017.3mb 45f 50f
10:00 22 30 mph 1017.2mb 45f 50f
9:36 20 29 mph 1017mb 45f 50f
9:30 22 28 mph 1017mb 45f 50f
9:24 23 29 mph 1016.9mb 45f 50f
9:18 20 28 mph 1016.7mb 45f 50f
9:12 21 25 mph 1016.8mb 45f 50f
9:06 18 24 mph 1016.7mb 45f 50f
9:00 20 24 mph 1016.7mb 45f 50f
8:36 22 25 mph 1016.7mb 45f 50f
8:30 17 23 mph 1016.6mb 45f 50f
8:24 15 23 mph 1016.6mb 45f 50f
8:18 20 23 mph 1016.5mb 45f 50f
8:12 22 28 mph - - 50f
8:06 21 24 mph 1016.4mb 45f 50f
8:00 21 25 mph - - 50f
7:36 21 28 mph 1016.1mb 45f 50f
7:30 24 26 mph 1016.1mb 45f 50f
7:24 21 25 mph 1016mb 45f 50f
7:18 20 23 mph 1015.9mb 45f 50f
7:12 16 29 mph 1015.8mb 45f 50f
7:06 22 26 mph 1015.8mb 45f 50f
7:00 21 26 mph 1015.8mb 45f 50f
6:36 18 26 mph 1015.3mb 45f 49f
6:30 16 26 mph 1015.2mb 45f 50f
6:24 25 29 mph 1015.3mb 45f 50f
6:18 22 29 mph 1015.2mb 45f 50f
6:12 21 28 mph 1015.2mb 45f 50f
6:06 23 26 mph 1015.1mb 45f 50f
6:00 22 28 mph 1015mb 45f 50f
5:36 21 30 mph 1015mb 45f 50f
5:30 24 31 mph 1015.1mb 45f 50f
5:24 24 31 mph 1015.1mb 45f 50f
5:18 22 28 mph 1015mb 45f 50f
5:12 23 28 mph 1014.9mb 45f 50f
5:06 21 30 mph 1014.8mb 45f 50f
5:00 21 30 mph 1014.9mb 45f 50f
4:36 25 32 mph 1014.9mb 45f 50f
4:30 23 31 mph 1014.9mb 45f 50f
4:24 24 33 mph 1014.9mb 45f 50f
4:18 24 33 mph 1014.8mb 45f 50f
4:12 26 36 mph 1014.9mb 45f 50f
4:06 24 33 mph 1014.9mb 45f 50f
4:00 24 33 mph 1014.8mb 45f 50f
3:36 21 29 mph 1014.5mb 45f 49f
3:30 23 29 mph 1014.5mb 45f 49f
3:24 22 28 mph 1014.5mb 45f 49f
3:18 24 30 mph 1014.5mb 45f 49f
3:12 24 30 mph 1014.5mb 45f 49f
3:06 26 30 mph 1014.5mb 46f 49f
3:00 24 34 mph 1014.3mb 46f 49f
2:36 21 26 mph 1013.9mb 46f 49f
2:30 22 29 mph 1014mb 46f 49f
2:24 24 31 mph 1014mb 46f 49f
2:18 22 28 mph 1014mb 46f 49f
2:12 22 28 mph 1013.9mb 46f 49f
2:06 24 31 mph 1014.1mb 46f 49f
2:00 22 26 mph - - 49f
1:36 17 23 mph 1013.7mb 48f 48f
1:30 16 21 mph 1013.6mb 48f 47f
1:24 26 31 mph 1014mb 48f 48f
1:18 11 18 mph 1013.6mb 48f 48f
1:12 15 20 mph - - 48f
1:06 16 21 mph 1013.5mb 48f 49f
1:00 18 22 mph - - 49f
12:36 20 25 mph 1013.7mb 47f 44f
12:30 7 9 mph 1013.5mb 47f 44f
12:24 2 6 mph 1013.3mb 47f 44f
12:18 2 3 mph 1013.4mb 46f 44f
12:12  -  2 mph 1013.4mb 46f 44f
12:06 1 2 mph 1013.5mb 46f 44f
12:00 1 2 mph 1013.5mb 45f 44f
11:36  -  mph 1013.6mb 45f -
11:30  -  mph 1013.5mb 45f -
11:24  -  mph 1013.5mb 45f -
11:18  -  mph 1013.6mb 45f -
11:12  -  mph 1013.6mb 45f -
11:06  -  mph 1013.7mb 45f -
11:00  -  mph 1013.7mb 45f -
10:36 3 6 mph - - 41f
10:30 5 6 mph 1013.8mb 45f 41f
10:24 5 10 mph 1013.9mb 45f 41f
10:18 7 10 mph 1013.9mb 45f 41f
10:12 5 9 mph - - 41f
10:06 6 8 mph 1013.8mb 45f 41f
10:00 6 8 mph 1013.6mb 45f 41f
9:36 6
mph
1013.6mb 45f 40f
9:30 5 6 mph 1013.6mb 45f 40f
9:24 5 8 mph 1013.6mb 45f 40f
9:18 7 9 mph 1013.5mb 45f 40f
9:12 3 5 mph 1013.6mb 45f 40f
9:06 3 8 mph 1013.6mb 45f 40f
9:00 6 10 mph 1013.1mb 45f 40f
8:36 3 7 mph 1012.9mb 45f 40f
8:30 6 7 mph 1013mb 45f 40f
8:24 6 7 mph 1013.2mb 45f 41f
8:18 6 7 mph 1013mb 45f 41f
8:12 6 8 mph - - 41f
8:06 6 8 mph 1013mb 45f 41f
8:00 5 7 mph 1013mb 45f 41f
7:36 3 6 mph 1013.1mb 45f 41f
7:30 5 7 mph 1013mb 45f 41f
7:24 5 6 mph 1013mb 45f 41f
7:18 3 6 mph 1012.9mb 45f 41f
7:12 2 3 mph 1012.9mb 45f 42f
7:06 3 6 mph 1012.9mb 45f 42f
7:00 3 6 mph 1013mb 45f 42f
6:36 3 8 mph 1013mb 45f 42f
6:30 6 8 mph 1013mb 45f 42f
6:24 6 8 mph 1013.1mb 45f 42f
6:18 6 9 mph 1013.1mb 45f 42f
6:12 6 10 mph 1013mb 45f 42f
6:06 6 10 mph 1012.9mb 45f 42f
6:00 5 8 mph 1013mb 45f 42f
5:36 6 9 mph 1012.9mb 45f 42f
5:30 6 8 mph 1013mb 45f 42f
5:24 5 6 mph 1013.1mb 45f 42f
5:18 5 7 mph 1013.1mb 45f 42f
5:12 5 8 mph 1013.2mb 45f 43f
5:06 5 10 mph - - 43f
5:00 3 7 mph 1013.2mb 46f 43f
4:54 3 6 mph 1013.3mb 45f 43f
4:48 2 8 mph 1013.3mb 45f 43f
4:36 8 10 mph 1013.5mb 45f 43f
4:30 3 10 mph 1013.6mb 46f 44f
4:24 6 16 mph 1013.8mb 45f 44f
4:18 6 24 mph 1014mb 46f 44f
4:12 16 24 mph 1014mb 46f 43f
4:06 8 10 mph 1013.9mb 46f 44f
4:00 6 10 mph 1013.8mb 46f 44f
3:54 5 7 mph 1014mb 46f 44f
3:48 3 6 mph 1014mb 46f 44f
3:36 7 9 mph 1014mb 46f 45f
3:30 6 8 mph 1014.1mb 46f 45f
3:24 5 9 mph 1014.3mb 46f 45f
3:18 5 9 mph 1014.3mb 46f 47f
3:12 6 8 mph 1014.5mb 46f 45f
3:06 5 10 mph 1014.5mb 46f 45f
3:00 7 14 mph 1014.5mb 46f 49f
2:54 10 15 mph 1014.6mb 46f 49f
2:48 10 13 mph 1014.7mb 46f 48f
2:36 7 13 mph 1014.7mb 46f 47f
2:30 3 7 mph 1014.8mb 46f 47f
2:24 3 10 mph 1014.7mb 46f 48f
2:18 6 8 mph 1014.8mb 46f 48f
2:12 7 11 mph 1014.8mb 46f 48f
2:06 7 23 mph 1014.7mb 46f 49f
2:00 20 26 mph 1014.9mb 46f 51f
1:54 18 26 mph 1015.2mb 46f 51f
1:48 14 17 mph 1015mb 46f 49f
1:36 8 16 mph 1015mb 46f 51f
1:30 10 15 mph 1015.2mb 46f 51f
1:24 7 17 mph 1015.3mb 46f 50f
1:18 14 18 mph 1015.3mb 46f 50f
1:12 13 17 mph 1015.4mb 46f 51f
1:06 11 16 mph 1015.5mb 46f 50f
1:00 9 14 mph 1015.6mb 46f 50f
12:54 9 16 mph 1015.7mb 46f 50f
12:48 14 20 mph 1015.8mb 46f 50f
12:24  -  mph 1016.2mb 46f -
12:18  -  mph 1016.2mb 46f -
12:06  -  mph 1016.3mb 46f -
12:00  -  mph 1016.4mb 46f -
Ter 12/23 11:54  -  mph 1016.4mb 46f -
11:48  -  mph 1016.5mb 45f -
11:36 14 18 mph 1016.7mb 46f 51f
11:30 13 20 mph 1016.6mb 45f 51f
11:24 14 18 mph 1016.7mb 46f 51f
11:18 13 16 mph 1016.8mb 46f 51f
11:12 11 15 mph 1016.8mb 46f 51f
11:06 8 11 mph 1016.8mb 46f 51f
11:00 8 13 mph 1016.8mb 46f 51f
10:54 11 16 mph 1017.1mb 46f 51f
10:48 10 14 mph 1017.1mb 46f 51f
10:36 8 14 mph 1017.1mb 46f 51f
10:30 8 13 mph 1017.3mb 46f 50f
10:24 9 13 mph 1017.2mb 46f 50f
10:18 8 13 mph 1017.2mb 46f 51f
10:12 6 11 mph 1017.2mb 45f 51f
10:06 8 14 mph 1017.1mb 46f 51f
10:00 10 16 mph 1017.3mb 46f 51f
9:54 9 14 mph 1017.3mb 46f 51f
9:48 10 14 mph 1017.2mb 46f 51f
9:36 9 20 mph 1017.3mb 46f 51f
9:30 9 13 mph 1017.4mb 46f 51f
9:24 8 11 mph 1017.3mb 46f 51f
9:18 10 14 mph 1017.2mb 46f 51f
9:12 9 14 mph 1017.3mb 46f 51f
9:06 13 16 mph 1017.3mb 46f 51f
9:00 10 15 mph 1017.3mb 46f 51f
8:54 10 14 mph 1017.6mb 46f 51f
8:48 10 11 mph 1017.9mb 46f 51f
8:36 6 10 mph 1018mb 46f 51f
8:30 8 11 mph 1018.2mb 46f 51f
8:24 8 13 mph 1018.3mb 46f 51f
8:18 8 10 mph 1018.3mb 46f 51f
8:12 7 13 mph 1018.2mb 46f 51f
8:06 9 13 mph 1018.5mb 46f 51f
8:00 9 13 mph 1018.3mb 46f 51f
7:54 10 13 mph 1018.5mb 46f 51f
7:48 8 13 mph 1018.4mb 46f 51f
7:36 8 9 mph 1018.5mb 46f 51f
7:30 8 9 mph 1018.5mb 46f 51f
7:24 6 8 mph 1018.5mb 46f 51f
7:18 3 8 mph 1018.6mb 46f 51f
7:12 8 9 mph 1018.7mb 46f 51f
7:06 8 10 mph 1018.9mb 46f 49f
7:00 5 6 mph 1018.9mb 46f 49f
6:54 3 7 mph 1018.5mb 46f 49f
6:48 3 8 mph 1018.7mb 46f 49f
6:36 8 11 mph 1019.1mb 46f 50f
6:30 8 11 mph 1019.2mb 46f 50f
6:24 8 11 mph 1019mb 46f 50f
6:18 9 11 mph 1019mb 46f 49f
6:12 8 14 mph 1019mb 46f 49f
6:06 6 10 mph 1018.8mb 46f 49f
6:00 5 8 mph 1018.7mb 46f 49f
5:54 7 10 mph 1018.8mb 46f 49f
5:48 6 8 mph 1018.7mb 46f 49f
5:36 3 6 mph 1018.7mb 46f 49f
5:30 5 11 mph 1018.8mb 46f 49f
5:24 6 11 mph 1018.6mb 46f 49f
5:18 7 10 mph 1018.8mb 46f 49f
5:12 8 10 mph 1018.8mb 46f 51f
5:06 3 8 mph 1019.1mb 46f 51f
5:00 5 10 mph 1019.4mb 46f 51f
4:54 5 9 mph - - 51f
4:48 6 10 mph 1019.4mb 46f 51f
4:36 6 9 mph 1019.6mb 46f 51f
4:30 7 10 mph 1019.3mb 46f 50f
4:24 9 13 mph 1019.3mb 46f 50f
4:18 9 11 mph 1019.3mb 46f 50f
4:12 8 11 mph 1019.4mb 46f 50f
4:06 7 10 mph 1019.5mb 46f 50f
4:00 6 7 mph 1019.4mb 46f 49f
3:54 3 7 mph 1019.4mb 46f 50f
3:48 8 9 mph 1019.4mb 46f 50f
3:36 8 11 mph - - 50f
3:30 9 14 mph 1020.1mb 46f 50f
3:24 10 14 mph 1020.2mb 47f 50f
3:18 8 10 mph 1019.8mb 47f 50f
3:12 7 11 mph 1019.6mb 47f 50f
3:06 6 11 mph 1019.8mb 47f 49f
3:00 7 10 mph 1019.8mb 47f 49f
2:54 5 8 mph 1019.8mb 48f 49f
2:48 6 8 mph 1019.6mb 48f 49f
2:36 6 10 mph 1019.6mb 49f 49f
2:30 6 7 mph 1019.7mb 49f 49f
2:24 5 8 mph 1019.8mb 50f 48f
2:18 5 7 mph 1019.7mb 50f 49f
2:12 5 8 mph - - 49f
2:06 6 7 mph 1019.8mb 51f 49f
2:00 5 7 mph 1019.8mb 51f 48f
1:54 3 6 mph 1019.9mb 51f 48f
1:48 1 5 mph 1019.8mb 52f 48f
1:36 3 6 mph 1019.1mb 52f 48f
1:30 2 7 mph 1019.4mb 52f 48f
1:24 6 7 mph 1019.2mb 52f 48f
1:18 2 3 mph 1019.9mb 52f 48f
1:12 2 3 mph 1020.3mb 52f 48f
1:06 2 5 mph 1020.3mb 52f 48f
1:00 3
mph
1020.3mb 52f 48f
12:54  -  1 mph 1020.5mb 52f 48f
12:48  -  1 mph 1020.6mb 52f 48f
12:36  -  1 mph 1020.3mb 52f 48f
12:30  -  1 mph 1020.3mb 52f 48f
12:24  -  1 mph 1020.4mb 52f 48f
12:18 1 2 mph 1020.6mb 52f 48f
12:12 1
mph
1020.5mb 52f 48f
12:06 2
mph
1020.5mb 52f 48f
12:00 1 3 mph 1020.6mb 52f 48f
11:54 2 3 mph 1020.7mb 52f 48f
11:48 2 3 mph 1020.7mb 52f 48f
11:36 1 3 mph 1020.3mb 52f 48f
11:30 2 3 mph 1020.4mb 52f 48f
11:24 2 6 mph 1020.6mb 52f 48f
11:18 5 7 mph 1020.6mb 52f 48f
11:12 6 7 mph 1020.7mb 52f 48f
11:06 7 10 mph 1020.8mb 51f 48f
11:00 8 9 mph - - 49f
10:54 7 9 mph 1021.1mb 51f 49f
10:48 9 11 mph 1021.3mb 51f 49f
10:36 14 17 mph 1021.1mb 51f 48f
10:30 15 21 mph 1021mb 51f 48f
10:24 17 24 mph 1021mb 51f 48f
10:18 17 26 mph 1021.3mb 51f 48f
10:12 24 28 mph 1021.5mb 50f 51f
10:06 14 23 mph 1020.4mb 50f 51f
10:00 14 28 mph 1020mb 50f 51f
9:54 18 26 mph 1020mb 49f 51f
9:48 14 26 mph 1019.9mb 49f 51f
9:36 13 25 mph 1019.8mb 46f 51f
9:30 15 25 mph 1019.8mb 45f 51f
9:24 17 26 mph 1019.8mb 45f 51f
9:18 14 22 mph 1019.8mb 45f 51f
9:12 15 23 mph 1019.9mb 45f 51f
9:06 16 28 mph 1019.7mb 45f 51f
9:00 14 24 mph 1019.7mb 45f 51f
8:54 15 23 mph 1019.7mb 45f 51f
8:48 16 25 mph 1019.6mb 45f 51f
8:36 15 30 mph 1019.7mb 45f 51f
8:30 16 24 mph 1019.7mb 45f 51f
8:24 14 22 mph 1019.7mb 45f 51f
8:18 14 28 mph 1019.7mb 45f 51f
8:12 17 30 mph 1019.7mb 45f 51f
8:06 17 25 mph 1019.6mb 45f 51f
8:00 15 26 mph 1019.5mb 45f 51f
7:54 15 26 mph 1019.6mb 45f 51f
7:48 16 29 mph - - 51f
7:36 16 26 mph 1019.8mb 45f 50f
7:30 15 24 mph 1019.9mb 45f 50f
7:24 14 21 mph 1019.9mb 44f 50f
7:18 14 21 mph 1020mb 44f 50f
7:12 18 23 mph 1019.9mb 44f 50f
7:06 14 23 mph 1020mb 44f 50f
7:00 13 25 mph 1020.1mb 44f 50f
6:54 16 28 mph 1020mb 44f 50f
6:48 14 25 mph 1020.2mb 45f 49f
6:36 16 24 mph 1020.3mb 44f 49f
6:30 11 23 mph 1020.4mb 44f 49f
6:24 13 23 mph 1020.5mb 45f 49f
6:18 13 21 mph 1020.5mb 45f 49f
6:12 10 21 mph 1020.5mb 45f 49f
6:06 13 23 mph 1020.5mb 45f 49f
6:00 11 18 mph 1020.6mb 45f 49f
5:54 9 17 mph 1020.6mb 45f 50f
5:48 13 26 mph 1020.6mb 45f 49f
5:36 14 22 mph 1020.8mb 45f 49f
5:30 11 23 mph 1020.9mb 45f 49f
5:24 15 22 mph 1020.8mb 45f 49f
5:18 10 23 mph 1020.8mb 45f 49f
5:12 10 17 mph 1020.9mb 45f 49f
5:06 8 17 mph 1020.9mb 46f 49f
5:00 11 17 mph 1021.1mb 46f 48f
4:54 9 21 mph 1021.3mb 46f 48f
4:48 7 13 mph 1021.1mb 46f 47f
4:36 8 10 mph 1021.2mb 46f 47f
4:30 6 11 mph 1021.3mb 46f 47f
4:24 3 10 mph 1021.3mb 46f 48f
4:18 8 11 mph 1021.3mb 46f 48f
4:12 6 14 mph 1021.4mb 46f 48f
4:06 6 15 mph 1021.5mb 46f 48f
4:00 5 15 mph 1021.6mb 46f 49f
3:54 7 15 mph 1021.6mb 46f 49f
3:48 7 15 mph 1021.5mb 46f 49f
3:36 9 16 mph 1021.9mb 46f 49f
3:30 7 14 mph 1022mb 46f 49f
3:24 8 14 mph 1022.2mb 46f 49f
3:18 9 14 mph 1022.2mb 47f 49f
3:12 9 16 mph 1022.3mb 47f 46f
3:06 6 9 mph 1022.4mb 47f 46f
3:00 7 9 mph 1022.5mb 47f 46f
2:54 7 9 mph 1022.6mb 47f 46f
2:48 6 9 mph 1022.8mb 48f 46f
2:36 5 8 mph 1022.9mb 49f 45f
2:30 6 13 mph 1023.1mb 49f 45f
2:24 3 9 mph 1023.4mb 49f 44f
2:18 7 10 mph 1023.4mb 50f 43f
2:12 6 8 mph 1023.5mb 50f 43f
2:06 9 11 mph 1023.4mb 50f 43f
2:00 8 11 mph 1023.6mb 50f 43f
1:54 9 11 mph 1023.5mb 51f 43f
1:48 7 11 mph 1023.5mb 51f 43f
1:36 6 9 mph 1023.8mb 51f 43f
1:30 7 8 mph 1024mb 51f 43f
1:24 6 8 mph 1024mb 51f 44f
1:18 5 8 mph 1023.9mb 51f 44f
1:12 6 8 mph - - 44f
1:06 7 9 mph 1023.8mb 51f 44f
1:00 6 8 mph 1023.9mb 51f 44f
12:54 6 9 mph 1023.8mb 51f 44f
12:48 6 9 mph 1023.7mb 51f 44f
12:36 6 8 mph 1023.9mb 51f 44f
12:30 6 8 mph 1024.1mb 51f 44f
12:24 6 9 mph 1024.3mb 50f 44f
12:18 7 9 mph 1024.3mb 50f 44f
12:12 7 10 mph 1024.3mb 49f 44f
12:06 6 10 mph 1024.4mb 49f 44f
12:00 7 9 mph 1024.4mb 48f 44f
Seg 12/22 11:54 5 8 mph 1024.4mb 47f 44f
11:48 7 10 mph 1024.4mb 47f 44f
11:36 8 10 mph 1024.5mb 46f 44f
11:30 6 10 mph 1024.6mb 46f 44f
11:24 5 9 mph 1024.7mb 46f 44f
11:18 7 9 mph 1024.6mb 46f 44f
11:12 5 7 mph 1024.8mb 46f 44f
11:06 6 8 mph 1024.9mb 46f 44f
11:00 6 9 mph 1024.9mb 46f 44f
10:54 6 8 mph 1024.9mb 46f 44f
10:48 5 8 mph 1024.9mb 46f 44f
10:36 6 9 mph 1024.8mb 46f 44f
10:30 6 8 mph 1024.8mb 46f 44f
10:24 7 9 mph 1024.7mb 46f 44f
10:18 7 9 mph 1024.8mb 46f 44f
10:12 6 8 mph 1024.9mb 46f 44f
10:06 5 9 mph 1024.9mb 46f 44f
10:00 7 9 mph 1025mb 46f 44f
9:54 7 9 mph 1025.1mb 46f 44f
9:48 5 7 mph 1025.2mb 46f 44f
9:36 6 8 mph 1025.4mb 46f 44f
9:30 6 7 mph 1025.5mb 46f 44f
9:24 6 7 mph 1025.6mb 46f 44f
9:18 5 7 mph 1025.6mb 46f 44f
9:12 6 8 mph 1025.7mb 46f 44f
9:06 5 7 mph 1025.8mb 46f 44f
9:00 5 8 mph 1025.7mb 46f 44f
8:54 6 8 mph 1025.6mb 46f 45f
8:48 5 7 mph 1025.8mb 46f 45f
8:36 7 8 mph 1026mb 46f 45f
8:30 3 8 mph 1026.1mb 46f 45f
8:24 6 8 mph 1026.1mb 46f 45f
8:18 6 7 mph 1026.4mb 46f 45f
8:12 7 8 mph 1026.5mb 46f 45f
8:06 5 8 mph 1026.6mb 46f 45f
8:00 5 6 mph 1026.5mb 46f 45f
7:54 5 7 mph 1026.5mb 46f 45f
7:48 5 8 mph 1026.4mb 46f 45f
7:36 6 8 mph 1026.4mb 46f 45f
7:30 6 7 mph 1026.5mb 46f 45f
7:24 6 7 mph 1026.3mb 46f 45f
7:18 5 9 mph 1026.3mb 46f 45f
7:12 5 7 mph 1026.3mb 46f 45f
7:06 3 7 mph 1026.3mb 46f 45f
7:00 5 7 mph 1026.4mb 46f 45f
6:54 5 6 mph 1026.4mb 46f 45f
6:48 5 7 mph 1026.4mb 46f 45f
6:36 3 6 mph 1026.2mb 46f 46f
6:30 5 6 mph 1026.2mb 46f 46f
6:24 2 5 mph 1026.2mb 46f 46f
6:18 3 5 mph 1026.3mb 46f 46f
6:12 5 6 mph 1026.4mb 46f 46f
6:06 3 7 mph 1026.2mb 46f 46f
6:00 3 6 mph 1026.4mb 46f 46f
5:54 5 6 mph 1026.4mb 46f 46f
5:48 3 6 mph 1026.5mb 46f 46f
5:36 5 7 mph 1026.5mb 46f 46f
5:30 5 7 mph 1026.7mb 46f 46f
5:24 5 7 mph 1026.6mb 46f 46f
5:18 6 8 mph 1026.7mb 46f 46f
5:12 6 7 mph 1026.8mb 46f 46f
5:06 3 8 mph 1026.9mb 46f 46f
5:00 6 8 mph 1027.1mb 46f 46f
4:54 6 8 mph 1027.1mb 46f 46f
4:48 5 7 mph 1027.2mb 46f 47f
4:36 3 6 mph 1027.5mb 46f 47f
4:30 5 6 mph 1027.3mb 46f 47f
4:24 3 6 mph 1027.3mb 46f 47f
4:18 5 6 mph 1027.3mb 46f 47f
4:12 3 6 mph 1027.3mb 46f 47f
4:06 5 6 mph 1027.1mb 46f 47f
4:00 2 6 mph 1027.1mb 46f 47f
3:54 3 6 mph 1027mb 46f 47f
3:48 3 6 mph 1026.9mb 46f 47f
3:36 5 7 mph 1027.2mb 46f 47f
3:30 5 6 mph 1027.4mb 46f 47f
3:24 5 6 mph 1027.5mb 46f 47f
3:18 6
mph
1027.3mb 46f 47f
3:12 6 7 mph 1027.2mb 46f 47f
3:06 5 7 mph 1027.4mb 46f 47f
3:00 5 7 mph 1027.5mb 46f 47f
2:54 5 7 mph 1027.6mb 46f 47f
2:48 6 8 mph 1027.8mb 46f 47f
2:36  -  mph 1027.9mb 46f -
2:30  -  mph 1027.6mb 46f -
2:24  -  mph 1027.6mb 46f -
2:18  -  mph 1027.5mb 46f -
2:12  -  mph 1027.3mb 46f -
2:00  -  mph 1027.7mb 46f -
1:54  -  mph 1027.8mb 46f -
1:48  -  mph 1027.9mb 46f -
1:36 2 3 mph 1027.8mb 47f 46f
1:30 2 3 mph 1027.6mb 47f 46f
1:24 1 5 mph 1027.8mb 47f 46f
1:18 3 5 mph 1027.8mb 47f 46f
1:12 6 8 mph 1027.7mb 48f 46f
1:06 5 8 mph 1027.7mb 48f 45f
1:00 7 8 mph 1027.7mb 48f 45f
12:54 6 8 mph 1027.6mb 48f 45f
12:48 6 7 mph 1027.7mb 48f 45f
12:36 7 9 mph 1027.8mb 49f 44f
12:30 7 9 mph 1027.8mb 50f 44f
12:24 7 8 mph 1027.9mb 50f 44f
12:18 6 9 mph 1027.9mb 50f 44f
12:12 7 8 mph 1027.8mb 50f 44f
12:06 7 8 mph 1027.9mb 50f 44f
12:00 7 8 mph 1028.1mb 50f 43f
11:54 7 9 mph 1027.8mb 50f 43f
11:48 8 9 mph 1027.7mb 51f 43f
11:36 6 8 mph 1027.6mb 51f 42f
11:30 7 9 mph 1027.7mb 51f 42f
11:24 7 9 mph 1027.6mb 51f 42f
11:18 7 9 mph 1027.7mb 51f 42f
11:12 7 9 mph 1027.8mb 51f 42f
11:06 7 9 mph 1027.7mb 51f 42f
11:00 7 9 mph 1027.6mb 51f 42f
10:54 6 9 mph 1027.7mb 50f 42f
10:48 7 9 mph 1027.8mb 50f 41f
10:36 8 10 mph 1027.9mb 50f 41f
10:30 8 10 mph 1027.9mb 49f 41f
10:24 8 13 mph 1027.7mb 49f 41f
10:18 8 11 mph 1027.8mb 48f 41f
10:12 8 11 mph 1027.7mb 47f 41f
10:06 8 10 mph 1027.5mb 47f 41f
10:00 8 11 mph 1027.5mb 47f 41f
9:54 7 9 mph 1027.7mb 46f 41f
9:48 8 10 mph 1027.9mb 46f 41f
9:36 8 10 mph 1027.6mb 46f 40f
9:30 7 10 mph 1027.6mb 46f 40f
9:24 8 10 mph 1027.5mb 46f 40f
9:18 7 9 mph 1027.8mb 46f 40f
9:12 8 9 mph 1027.6mb 46f 40f
9:06 8 10 mph 1027.3mb 46f 40f
9:00 9 11 mph 1027mb 46f 40f
8:54 8 10 mph 1027.1mb 46f 40f
8:48 7 10 mph 1027.1mb 46f 40f
8:36 8 10 mph 1027mb 46f 39f
8:30 7 10 mph 1027mb 46f 39f
8:24 8 10 mph 1026.8mb 46f 39f
8:18 8 11 mph 1026.6mb 46f 39f
8:12 10 11 mph 1026.5mb 46f 39f
8:06 8 10 mph 1026.6mb 46f 39f
8:00 9 10 mph 1026.6mb 46f 39f
7:54 9 10 mph 1026.3mb 46f 39f
7:48 8 11 mph 1026.6mb 46f 40f
7:36 10 14 mph 1026.3mb 46f 40f
7:30 9 11 mph 1026.4mb 46f 40f
7:24 8 10 mph 1026.4mb 46f 40f
7:18 9 11 mph 1026.4mb 46f 41f
7:12 8 11 mph 1026.2mb 46f 41f
7:06 8 11 mph 1026.2mb 46f 41f
7:00 8 10 mph 1025.9mb 46f 41f
6:54 7 9 mph 1026mb 46f 41f
6:48 8 10 mph 1026mb 46f 41f
6:36 8 11 mph 1025.8mb 46f 41f
6:30 8 10 mph 1025.9mb 46f 41f
6:24 8 13 mph 1026mb 46f 41f
6:18 7 11 mph 1025.8mb 46f 41f
6:12 7 10 mph 1025.7mb 46f 42f
6:06 6 9 mph 1025.6mb 46f 42f
6:00 7 8 mph 1025.5mb 46f 42f
5:54 6 8 mph 1025.3mb 46f 42f
5:48 7 8 mph 1025.2mb 46f 42f
5:36 7 9 mph 1024.9mb 46f 42f
5:30 7 10 mph 1024.7mb 46f 42f
5:24 7 9 mph 1024.4mb 46f 43f
5:18 7 10 mph 1024.3mb 46f 43f
5:12 9 10 mph 1024mb 46f 43f
5:06 7 9 mph 1023.9mb 46f 43f
5:00 7 9 mph 1024mb 46f 43f
4:54 8 9 mph 1024.2mb 46f 44f
4:48 8 10 mph 1024.3mb 46f 44f
4:36 6 9 mph 1024mb 46f 44f
4:30 7 10 mph 1024mb 46f 44f
4:24 6 9 mph 1023.9mb 46f 44f
4:18 5 7 mph 1024mb 46f 44f
4:12 8 10 mph 1024mb 46f 44f
4:06 7 10 mph 1023.9mb 46f 45f
4:00 8 9 mph 1023.9mb 46f 45f
3:54 6 7 mph 1023.9mb 46f 45f
3:48 5 6 mph 1023.9mb 46f 45f
3:36 5 7 mph 1024mb 47f 46f
3:30 2 5 mph 1023.9mb 47f 47f
3:24 5 6 mph 1023.8mb 47f 47f
3:18 2 6 mph 1023.9mb 47f 46f
3:12 5 6 mph 1023.7mb 47f 46f
3:06 2 5 mph 1023.4mb 47f 47f
3:00 2 5 mph 1023.2mb 47f 47f
2:54 1 3 mph 1023.3mb 47f 49f
2:48 2 9 mph 1023.2mb 47f 49f
2:36 10 15 mph 1023.2mb 47f 51f
2:30 13 16 mph 1023.2mb 47f 51f
2:24 11 15 mph 1023.1mb 47f 51f
2:18 13 15 mph 1023mb 47f 50f
2:12 7 10 mph 1022.7mb 47f 50f
2:06 5 13 mph 1022.5mb 47f 49f
2:00 3 6 mph 1022.3mb 47f 49f
1:54 3 5 mph 1022.2mb 47f 49f
1:48 3 5 mph 1022mb 47f 50f
1:36 2 8 mph 1021.8mb 47f 51f
1:30 6 8 mph 1021.7mb 47f 51f
1:24 7 8 mph 1021.7mb 47f 50f
1:18 3 10 mph 1021.6mb 47f 51f
1:12 8 9 mph 1021.6mb 47f 51f
1:06 9 13 mph - - 50f
1:00 9 15 mph 1021.6mb 47f 51f
12:54 13 15 mph 1021.7mb 47f 51f
12:48 10 14 mph 1021.6mb 47f 51f
12:36 11 16 mph 1021.7mb 47f 50f
12:30 11 16 mph 1021.6mb 47f 51f
12:24 15 22 mph 1021.5mb 47f 51f
12:18 16 21 mph 1021.5mb 47f 51f
12:12 13 20 mph 1021.3mb 47f 51f
12:06 16 18 mph 1021.2mb 47f 51f
12:00 18 24 mph 1021.2mb 47f 51f
Dom 12/21 11:54 21 23 mph 1021.1mb 47f 53f
11:48 15 20 mph 1021.3mb 47f 53f
11:36 13 17 mph 1021.1mb 47f 53f
11:30 11 16 mph 1021mb 47f 53f
11:24 14 17 mph 1020.9mb 47f 53f
11:18 14 17 mph 1020.9mb 47f 52f
11:12 11 15 mph 1020.7mb 47f 53f
11:06 13 15 mph 1020.6mb 47f 53f
11:00 11 14 mph 1020.5mb 47f 53f
10:54 13 15 mph 1020.3mb 47f 53f
10:48 11 15 mph 1020.2mb 47f 53f
10:36 11 14 mph 1019.9mb 47f 53f
10:30 10 15 mph 1019.9mb 47f 53f
10:24 11 14 mph 1019.8mb 47f 53f
10:18 11 15 mph 1019.7mb 47f 53f
10:12 10 16 mph 1019.5mb 47f 53f
10:06 13 15 mph 1019.5mb 47f 53f
10:00 13 16 mph 1019.5mb 47f 53f
9:54 11 14 mph 1019.4mb 47f 53f
9:48 10 13 mph 1019.3mb 47f 53f
9:36 10 14 mph 1019.3mb 47f 53f
9:30 10 15 mph 1019mb 47f 53f
9:24 11 15 mph 1019.2mb 47f 53f
9:18 11 14 mph 1019.1mb 47f 53f
9:12 10 13 mph 1018.9mb 47f 53f
9:06 10 15 mph 1018.7mb 47f 53f
9:00 10 15 mph 1018.4mb 47f 53f
8:54 13 16 mph 1018.6mb 47f 53f
8:48 13 15 mph 1018.3mb 47f 53f
8:36 10 14 mph 1018.6mb 47f 53f
8:30 9 14 mph 1018.5mb 47f 53f
8:24 7 14 mph 1018.5mb 47f 53f
8:18 9 11 mph 1018.7mb 47f 53f
8:12 9 13 mph 1018.6mb 47f 53f
8:06 9 16 mph 1018.5mb 47f 53f
8:00 9 14 mph 1018.5mb 47f 53f
7:54 9 13 mph 1018.5mb 47f 53f
7:48 10 14 mph 1018.4mb 47f 53f
7:36 11 15 mph 1018.4mb 47f 53f
7:30 13 14 mph 1018.2mb 47f 53f
7:24 10 14 mph 1017.9mb 47f 53f
7:18 10 15 mph 1017.7mb 47f 53f
7:12 13 16 mph 1017.8mb 47f 53f
7:06 10 14 mph 1018mb 47f 53f
7:00 11 16 mph 1018.2mb 47f 53f
6:54 10 14 mph 1018mb 47f 53f
6:48 13 16 mph 1017.8mb 47f 53f
6:36 10 14 mph 1017.8mb 47f 53f
6:30 10 15 mph 1017.8mb 47f 53f
6:24 11 14 mph 1017.7mb 47f 53f
6:18 11 15 mph 1017.7mb 47f 53f
6:12 13 16 mph 1017.7mb 47f 53f
6:06 14 16 mph 1018.1mb 46f 53f
6:00 11 16 mph 1018.2mb 47f 53f
5:54 14 16 mph 1017.9mb 47f 53f
5:48 10 14 mph 1017.7mb 47f 53f
5:36 9 13 mph 1017.9mb 46f 53f
5:30 11 15 mph 1017.8mb 46f 53f
5:24 11 16 mph 1017.6mb 46f 53f
5:18 10 15 mph 1017.7mb 46f 53f
5:12 10 14 mph 1017.5mb 46f 53f
5:06 11 16 mph 1017.6mb 46f 53f
5:00 11 15 mph 1017.7mb 46f 53f
4:54 11 15 mph 1017.6mb 46f 53f
4:48 11 15 mph 1017.3mb 46f 53f
4:36 10 16 mph 1017.2mb 46f 53f
4:30 10 16 mph 1016.8mb 46f 53f
4:24 11 16 mph 1016.7mb 46f 53f
4:18 9 14 mph 1016.6mb 46f 53f
4:12 10 13 mph 1016.5mb 46f 53f
4:06 10 15 mph 1016.2mb 47f 53f
4:00 8 14 mph 1016.6mb 47f 53f
3:54 11 15 mph 1017.2mb 47f 53f
3:48 11 15 mph 1017.1mb 47f 53f
3:36 10 14 mph 1017mb 47f 53f
3:30 11 15 mph 1016.7mb 47f 53f
3:24 10 14 mph 1016.6mb 47f 53f
3:18 11 16 mph 1016.8mb 47f 53f
3:12 13 20 mph 1016.4mb 47f 53f
3:06 11 16 mph 1015.8mb 47f 53f
3:00 10 16 mph 1016.1mb 47f 53f
2:54 11 15 mph 1016.1mb 47f 53f
2:48 13 15 mph 1015.9mb 47f 53f
2:36 11 14 mph 1015.9mb 47f 53f
2:30 9 13 mph 1016mb 47f 53f
2:24 8 13 mph 1015.9mb 47f 53f
2:18 10 14 mph 1016.2mb 47f 53f
2:12 11 15 mph 1016mb 47f 53f
2:06 10 16 mph 1015.9mb 47f 53f
2:00 11 15 mph 1015.7mb 47f 53f
1:54 9 13 mph 1015.4mb 47f 53f
1:48 9 14 mph 1015.5mb 47f 53f
1:36 11 15 mph 1015.5mb 47f 53f
1:30 10 14 mph 1015.5mb 47f 53f
1:24 13 15 mph 1015.5mb 47f 53f
1:18 13 17 mph 1015.5mb 47f 53f
1:12 13 16 mph 1015.7mb 47f 53f
1:06 11 15 mph 1015.8mb 47f 53f